Tracking 28529 objects as of 25-Feb-2024
HD Live streaming from Space Station
objects crossing your sky now

BREEZE-M DEB (TANK)

Track BREEZE-M DEB (TANK) now!
10-day predictions


NORAD ID: 40386
Int'l Code: 2015-005C
Perigee: 357.1 km
Apogee: 14,680.6 km
Inclination: 50.8 °
Period: 271.5 minutes
Semi major axis: 13889 km
RCS: Unknown
Launch date: February 1, 2015
Source: Commonwealth of Independent States (former USSR) (CIS)
Launch site: TYURATAM MISSILE AND SPACE COMPLEX (TTMTR)

Note: This is SATELLITE DEBRIS
Your satellite tracking list
Your tracking list is empty




NASA's NSSDC Master Catalog

Two Line Element Set (TLE):
1 40386U 15005C   24053.80958257  .00004611  00000-0  17004-2 0  9996
2 40386  50.7529 336.4824 5156082   1.1023 359.6867  5.30343040174373
Source of the keplerian elements: AFSPC